GW1010 Weather Reports


Display with metric or nautical units.
time (UTC)temp
F
wind
direction
speed
MPH
gust
MPH
rain 1hr
in
rain 24hr
in
rain mn
in
humidity
%
barometer
mb
20260903100528 49 0 0.0 0.0 0.00 0.00 0.00 91 1016.8
20260903100053 49 0 0.0 0.0 0.00 0.00 0.00 90 1016.8
20260903095525 49 0 0.0 0.0 0.00 0.00 0.00 90 1016.8
20260903095029 49 0 0.0 0.0 0.00 0.00 0.00 89 1016.8
20260903094544 50 0 0.0 0.0 0.00 0.00 0.00 90 1016.8
20260903094026 50 0 0.0 0.0 0.00 0.00 0.00 92 1016.9
20260903093528 50 0 0.0 0.0 0.00 0.00 0.00 91 1017.0
20260903093117 50 0 0.0 0.0 0.00 0.00 0.00 90 1017.1
20260903092528 50 0 0.0 0.0 0.00 0.00 0.00 89 1017.0
20260903092028 50 0 0.0 0.0 0.00 0.00 0.00 89 1017.0
20260903091547 50 0 0.0 0.0 0.00 0.00 0.00 89 1017.0
20260903091028 50 0 0.0 0.0 0.00 0.00 0.00 89 1017.1
20260903090528 51 0 0.0 0.0 0.00 0.00 0.00 90 1017.2
20260903090044 51 0 0.0 0.0 0.00 0.00 0.00 89 1017.3
20260903085525 51 0 0.0 0.0 0.00 0.00 0.00 89 1017.2
20260903085027 51 0 0.0 0.0 0.00 0.00 0.00 88 1017.4
20260903084556 51 0 0.0 0.0 0.00 0.00 0.00 88 1017.3
20260903084029 51 0 0.0 0.0 0.00 0.00 0.00 87 1017.3
20260903083529 51 0 0.0 0.0 0.00 0.00 0.00 87 1017.4
20260903083051 52 0 0.0 0.0 0.00 0.00 0.00 87 1017.4
20260903082527 52 0 0.0 0.0 0.00 0.00 0.00 90 1017.5
20260903082028 52 0 0.0 0.0 0.00 0.00 0.00 90 1017.5
20260903081548 52 0 0.0 0.0 0.00 0.00 0.00 89 1017.5
20260903081028 52 0 0.0 0.0 0.00 0.00 0.00 89 1017.5
20260903080527 52 0 0.0 0.0 0.00 0.00 0.00 88 1017.5
20260903080053 52 0 0.0 0.0 0.00 0.00 0.00 88 1017.5
20260903075528 52 0 0.0 0.0 0.00 0.00 0.00 87 1017.5
20260903075027 53 0 0.0 0.0 0.00 0.00 0.00 87 1017.4
20260903074612 53 0 0.0 0.0 0.00 0.00 0.00 87 1017.5
20260903074028 53 0 0.0 0.0 0.00 0.00 0.00 87 1017.4
20260903073528 53 0 0.0 0.0 0.00 0.00 0.00 87 1017.4
20260903073050 53 0 0.0 0.0 0.00 0.00 0.00 87 1017.4
20260903072527 54 0 0.0 0.0 0.00 0.00 0.00 85 1017.4
20260903072027 54 0 0.0 0.0 0.00 0.00 0.00 86 1017.3
20260903071550 54 0 0.0 0.0 0.00 0.00 0.00 86 1017.2
20260903071027 54 0 0.0 0.0 0.00 0.00 0.00 87 1017.3
20260903070527 54 0 0.0 0.0 0.00 0.00 0.00 85 1017.2
20260903070048 54 0 0.0 0.0 0.00 0.00 0.00 85 1017.2
20260903065528 55 0 0.0 0.0 0.00 0.00 0.00 85 1017.2
20260903065026 55 0 0.0 0.0 0.00 0.00 0.00 84 1017.1
20260903064546 55 0 0.0 0.0 0.00 0.00 0.00 84 1017.1
20260903064026 55 0 0.0 0.0 0.00 0.00 0.00 82 1017.1
20260903063526 56 0 0.0 0.0 0.00 0.00 0.00 82 1017.1
20260903063042 56 0 0.0 0.0 0.00 0.00 0.00 83 1017.2
20260903062528 57 0 0.0 0.0 0.00 0.00 0.00 83 1017.1
20260903062031 57 0 0.0 0.0 0.00 0.00 0.00 84 1017.1
20260903061554 57 0 0.0 0.0 0.00 0.00 0.00 83 1017.1
20260903061034 57 0 0.0 0.0 0.00 0.00 0.00 81 1017.1
20260903060527 57 0 0.0 0.0 0.00 0.00 0.00 81 1017.2
20260903060049 58 0 0.0 0.0 0.00 0.00 0.00 82 1017.1
20260903055527 58 0 0.0 0.0 0.00 0.00 0.00 82 1017.1
20260903055030 58 0 0.0 0.0 0.00 0.00 0.00 82 1017.2
20260903054545 58 0 0.0 0.0 0.00 0.00 0.00 82 1017.2
20260903054030 58 0 0.0 0.0 0.00 0.00 0.00 82 1017.3
20260903053528 58 0 0.0 0.0 0.00 0.00 0.00 81 1017.3
20260903053050 58 0 0.0 0.0 0.00 0.00 0.00 81 1017.3
20260903052528 59 0 0.0 0.0 0.00 0.00 0.00 81 1017.3
20260903052028 59 0 0.0 0.0 0.00 0.00 0.00 81 1017.3
20260903051543 59 0 0.0 0.0 0.00 0.00 0.00 80 1017.3
20260903051025 59 0 0.0 0.0 0.00 0.00 0.00 79 1017.2
20260903050528 59 0 0.0 0.0 0.00 0.00 0.00 78 1017.3
20260903050044 60 0 0.0 0.0 0.00 0.00 0.00 80 1017.3
20260903045529 60 0 0.0 0.0 0.00 0.00 0.00 79 1017.3
20260903045028 60 0 0.0 0.0 0.00 0.00 0.00 78 1017.2
20260903044554 60 0 0.0 0.0 0.00 0.00 0.00 77 1017.2
20260903044027 60 0 0.0 0.0 0.00 0.00 0.00 76 1017.2
20260903043533 61 0 0.0 0.0 0.00 0.00 0.00 75 1017.3
20260903043047 61 0 0.0 0.0 0.00 0.00 0.00 75 1017.2
20260903042528 62 0 0.0 0.0 0.00 0.00 0.00 75 1017.1
20260903042029 62 0 0.0 0.0 0.00 0.00 0.00 74 1017.1
20260903041555 62 0 0.0 1.0 0.00 0.00 0.00 74 1017.0
20260903041027 63 0 0.0 1.0 0.00 0.00 0.00 73 1016.9
20260903040527 63 60 0.0 1.0 0.00 0.00 0.00 73 1016.8
20260903040055 63 0 0.0 0.0 0.00 0.00 0.00 73 1016.7
20260903035527 63 0 0.0 0.0 0.00 0.00 0.00 72 1016.6
20260903035027 64 0 0.0 1.0 0.00 0.00 0.00 72 1016.6
20260903034552 64 0 0.0 1.0 0.00 0.00 0.00 72 1016.5
20260903034027 64 0 0.0 1.0 0.00 0.00 0.00 71 1016.4
20260903033529 64 0 0.0 3.0 0.00 0.00 0.00 71 1016.4
20260903033047 64 0 0.0 3.0 0.00 0.00 0.00 71 1016.2
20260903032531 65 0 1.0 3.0 0.00 0.00 0.00 70 1016.1
20260903032027 65 101 0.0 2.0 0.00 0.00 0.00 70 1016.2
20260903031600 65 0 0.0 3.0 0.00 0.00 0.00 70 1016.2
20260903031027 65 150 0.0 4.0 0.00 0.00 0.00 70 1016.2
20260903030527 66 176 1.0 4.0 0.00 0.00 0.00 69 1016.2
20260903030056 66 210 0.0 1.0 0.00 0.00 0.00 69 1016.2
20260903025528 66 0 0.0 4.0 0.00 0.00 0.00 68 1016.2
20260903025029 67 0 0.0 4.0 0.00 0.00 0.00 68 1016.1
20260903024555 67 93 1.0 3.0 0.00 0.00 0.00 67 1016.2
20260903024027 67 0 0.0 3.0 0.00 0.00 0.00 66 1016.2
20260903023532 68 0 0.0 3.0 0.00 0.00 0.00 66 1016.3
20260903023046 68 260 1.0 4.0 0.00 0.00 0.00 65 1016.1
20260903022528 68 153 1.0 4.0 0.00 0.00 0.00 64 1016.2
20260903022029 69 248 0.0 3.0 0.00 0.00 0.00 63 1016.2
20260903021555 69 0 0.0 4.0 0.00 0.00 0.00 62 1016.2
20260903021028 69 65 0.0 4.0 0.00 0.00 0.00 62 1016.1
20260903020529 70 125 1.0 3.0 0.00 0.00 0.00 61 1016.1
20260903020041 70 58 0.0 4.0 0.00 0.00 0.00 60 1016.1
20260903015527 71 143 2.0 6.0 0.00 0.00 0.00 60 1016.2
20260903015028 71 264 1.0 6.0 0.00 0.00 0.00 59 1016.2
20260903014555 72 193 1.0 5.0 0.00 0.00 0.00 58 1016.1
20260903014027 72 246 1.0 5.0 0.00 0.00 0.00 57 1016.1
20260903013527 73 158 1.0 5.0 0.00 0.00 0.00 56 1016.1
20260903013047 74 293 0.0 3.0 0.00 0.00 0.00 55 1016.1
20260903012531 74 0 0.0 3.0 0.00 0.00 0.00 54 1016.2
20260903012026 75 187 0.0 6.0 0.00 0.00 0.00 53 1016.2
20260903011548 76 215 1.0 6.0 0.00 0.00 0.00 51 1016.2
20260903011031 77 276 1.0 6.0 0.00 0.00 0.00 51 1016.4
20260903010527 77 238 1.0 4.0 0.00 0.00 0.00 50 1016.4
20260903010049 77 236 0.0 5.0 0.00 0.00 0.00 51 1016.4
20260903005531 76 0 1.0 5.0 0.00 0.00 0.00 52 1016.4
20260903005026 77 245 1.0 6.0 0.00 0.00 0.00 51 1016.4
20260903004552 76 332 2.0 6.0 0.00 0.00 0.00 52 1016.4
20260903004027 77 232 1.0 7.0 0.00 0.00 0.00 51 1016.5
20260903003528 77 0 2.0 7.0 0.00 0.00 0.00 51 1016.4
20260903003055 78 107 2.0 7.0 0.00 0.00 0.00 50 1016.4
20260903002528 78 186 3.0 7.0 0.00 0.00 0.00 49 1016.4
20260903002027 78 108 1.0 6.0 0.00 0.00 0.00 48 1016.4
20260903001542 79 129 2.0 6.0 0.00 0.00 0.00 48 1016.4
20260903001027 79 89 2.0 5.0 0.00 0.00 0.00 48 1016.3
20260903000527 79 165 1.0 6.0 0.00 0.00 0.00 47 1016.3
20260903000056 79 165 3.0 6.0 0.00 0.00 0.00 47 1016.3
20260902235528 79 170 0.0 4.0 0.00 0.00 0.00 48 1016.4
20260902235028 78 231 2.0 4.0 0.00 0.00 0.00 48 1016.4
20260902234600 78 245 1.0 7.0 0.00 0.00 0.00 48 1016.3
20260902234027 78 82 3.0 7.0 0.00 0.00 0.00 48 1016.4
20260902233527 78 271 1.0 7.0 0.00 0.00 0.00 48 1016.4
20260902233048 79 188 3.0 7.0 0.00 0.00 0.00 49 1016.4
20260902232529 79 146 1.0 7.0 0.00 0.00 0.00 49 1016.5
20260902232028 80 146 3.0 7.0 0.00 0.00 0.00 48 1016.6
20260902231557 80 79 2.0 7.0 0.00 0.00 0.00 47 1016.6
20260902231028 80 112 1.0 7.0 0.00 0.00 0.00 46 1016.7
20260902230531 80 354 0.0 7.0 0.00 0.00 0.00 47 1016.5
20260902230048 80 75 3.0 7.0 0.00 0.00 0.00 45 1016.6
20260902225531 80 162 2.0 11.0 0.00 0.00 0.00 43 1016.6
20260902225030 80 89 3.0 11.0 0.00 0.00 0.00 43 1016.6
20260902224603 80 271 2.0 8.0 0.00 0.00 0.00 42 1016.7
20260902224029 80 141 3.0 8.0 0.00 0.00 0.00 41 1016.8
20260902223531 80 96 2.0 9.0 0.00 0.00 0.00 41 1016.9
20260902223048 80 81 2.0 9.0 0.00 0.00 0.00 41 1016.8
20260902222525 81 120 2.0 7.0 0.00 0.00 0.00 41 1016.9
20260902222032 81 197 2.0 7.0 0.00 0.00 0.00 40 1017.0
20260902221547 81 77 2.0 7.0 0.00 0.00 0.00 40 1017.0
20260902221028 81 117 2.0 7.0 0.00 0.00 0.00 40 1017.0
20260902220527 82 207 3.0 7.0 0.00 0.00 0.00 40 1017.0
20260902220056 82 94 2.0 6.0 0.00 0.00 0.00 41 1017.0
20260902215525 82 70 2.0 7.0 0.00 0.00 0.00 41 1017.1
20260902215027 82 249 2.0 7.0 0.00 0.00 0.00 41 1017.1
20260902214544 82 148 2.0 5.0 0.00 0.00 0.00 42 1017.1
20260902214029 81 112 2.0 6.0 0.00 0.00 0.00 42 1017.2
20260902213525 82 120 2.0 6.0 0.00 0.00 0.00 42 1017.2
20260902213102 82 92 1.0 6.0 0.00 0.00 0.00 41 1017.2
20260902212527 82 160 1.0 7.0 0.00 0.00 0.00 41 1017.2
20260902212028 81 101 3.0 7.0 0.00 0.00 0.00 41 1017.3
20260902211551 82 63 2.0 6.0 0.00 0.00 0.00 40 1017.4
20260902211032 82 226 2.0 6.0 0.00 0.00 0.00 41 1017.4
20260902210529 82 157 1.0 6.0 0.00 0.00 0.00 41 1017.4
20260902210048 81 131 1.0 8.0 0.00 0.00 0.00 41 1017.3
20260902205525 81 141 2.0 8.0 0.00 0.00 0.00 41 1017.4
20260902205028 81 262 2.0 7.0 0.00 0.00 0.00 41 1017.4
20260902204552 80 204 2.0 7.0 0.00 0.00 0.00 43 1017.4
20260902204026 80 148 2.0 6.0 0.00 0.00 0.00 43 1017.4
20260902203526 79 248 1.0 6.0 0.00 0.00 0.00 41 1017.4
20260902203057 80 285 2.0 6.0 0.00 0.00 0.00 39 1017.5
20260902202527 80 33 0.0 4.0 0.00 0.00 0.00 40 1017.5
20260902202028 79 212 1.0 4.0 0.00 0.00 0.00 40 1017.5
20260902201553 79 326 1.0 5.0 0.00 0.00 0.00 39 1017.5
20260902201029 79 242 1.0 5.0 0.00 0.00 0.00 39 1017.6
20260902200529 79 174 1.0 4.0 0.00 0.00 0.00 38 1017.7
20260902200055 79 153 0.0 3.0 0.00 0.00 0.00 40 1017.7
20260902195530 78 151 1.0 5.0 0.00 0.00 0.00 41 1017.7
20260902195029 78 300 1.0 5.0 0.00 0.00 0.00 40 1017.9
20260902194556 78 323 1.0 4.0 0.00 0.00 0.00 39 1017.9
20260902194029 78 197 0.0 3.0 0.00 0.00 0.00 40 1018.0
20260902193526 78 195 1.0 3.0 0.00 0.00 0.00 39 1018.1
20260902193056 78 0 0.0 2.0 0.00 0.00 0.00 40 1018.1
20260902192529 78 0 0.0 2.0 0.00 0.00 0.00 41 1018.1
20260902192033 77 154 0.0 2.0 0.00 0.00 0.00 41 1018.2
20260902191555 77 153 0.0 2.0 0.00 0.00 0.00 41 1018.2
20260902191031 77 155 1.0 3.0 0.00 0.00 0.00 43 1018.3
20260902190526 77 307 1.0 3.0 0.00 0.00 0.00 42 1018.4
20260902190047 76 166 0.0 2.0 0.00 0.00 0.00 44 1018.4
20260902185526 76 167 0.0 3.0 0.00 0.00 0.00 46 1018.5
20260902185026 75 0 0.0 3.0 0.00 0.00 0.00 44 1018.5
20260902184552 75 0 0.0 4.0 0.00 0.00 0.00 46 1018.6
20260902184032 75 0 0.0 4.0 0.00 0.00 0.00 46 1018.6
20260902183529 74 255 0.0 4.0 0.00 0.00 0.00 45 1018.7
20260902183109 75 1 1.0 4.0 0.00 0.00 0.00 45 1018.8
20260902182527 74 20 0.0 2.0 0.00 0.00 0.00 47 1018.9
20260902182029 73 0 0.0 3.0 0.00 0.00 0.00 49 1018.9
20260902181554 72 0 1.0 3.0 0.00 0.00 0.00 50 1019.1
20260902181027 72 293 1.0 2.0 0.00 0.00 0.00 48 1019.0
20260902180527 72 0 0.0 3.0 0.00 0.00 0.00 50 1019.0
20260902180051 71 245 0.0 3.0 0.00 0.00 0.00 50 1019.0
20260902175529 71 329 0.0 4.0 0.00 0.00 0.00 51 1019.1
20260902175030 70 309 1.0 4.0 0.00 0.00 0.00 53 1019.1
20260902174554 69 58 0.0 4.0 0.00 0.00 0.00 55 1019.1
20260902174029 69 0 0.0 4.0 0.00 0.00 0.00 56 1019.0
20260902173531 68 321 2.0 4.0 0.00 0.00 0.00 56 1019.0
20260902173048 68 0 0.0 3.0 0.00 0.00 0.00 57 1019.1
20260902172532 67 360 0.0 3.0 0.00 0.00 0.00 60 1019.1
20260902172026 67 336 0.0 4.0 0.00 0.00 0.00 60 1019.0
20260902171551 66 323 2.0 4.0 0.00 0.00 0.00 61 1019.0
20260902171025 65 0 0.0 4.0 0.00 0.00 0.00 64 1019.1
20260902170526 64 314 1.0 5.0 0.00 0.00 0.00 64 1019.1
20260902170046 64 300 2.0 5.0 0.00 0.00 0.00 65 1019.2
20260902165529 63 323 0.0 4.0 0.00 0.00 0.00 68 1019.3
20260902165026 62 309 1.0 3.0 0.00 0.00 0.00 70 1019.2
20260902164549 62 308 0.0 3.0 0.00 0.00 0.00 72 1019.2
20260902164027 61 0 0.0 3.0 0.00 0.00 0.00 75 1019.2
20260902163528 60 0 0.0 3.0 0.00 0.00 0.00 78 1019.3
20260902163100 59 0 0.0 3.0 0.00 0.00 0.00 78 1019.2
20260902162525 58 0 1.0 3.0 0.00 0.00 0.00 79 1019.2
20260902162030 57 335 0.0 3.0 0.00 0.00 0.00 80 1019.2
20260902161544 57 0 0.0 3.0 0.00 0.00 0.00 82 1019.2
20260902161029 56 0 1.0 3.0 0.00 0.00 0.00 83 1019.2
20260902160529 55 0 0.0 2.0 0.00 0.00 0.00 84 1019.2
20260902160049 55 316 1.0 3.0 0.00 0.00 0.00 85 1019.2
20260902155528 54 0 0.0 3.0 0.00 0.00 0.00 86 1019.2
20260902155032 53 312 0.0 2.0 0.00 0.00 0.00 87 1019.2
20260902154547 53 0 0.0 0.0 0.00 0.00 0.00 89 1019.2
20260902154027 52 0 0.0 1.0 0.00 0.00 0.00 89 1019.2
20260902153526 51 0 0.0 1.0 0.00 0.00 0.00 91 1019.1
20260902153045 51 0 0.0 0.0 0.00 0.00 0.00 92 1019.2
20260902152526 50 0 0.0 0.0 0.00 0.00 0.00 93 1019.2
20260902152030 49 0 0.0 0.0 0.00 0.00 0.00 94 1019.1
20260902151554 48 0 0.0 0.0 0.00 0.00 0.00 95 1019.1
20260902151029 48 0 0.0 0.0 0.00 0.00 0.00 95 1019.0
20260902150529 47 0 0.0 0.0 0.00 0.00 0.00 95 1018.9
20260902150044 47 0 0.0 0.0 0.00 0.00 0.00 96 1019.0
20260902145526 46 0 0.0 0.0 0.00 0.00 0.00 96 1019.0
20260902145026 46 0 0.0 0.0 0.00 0.00 0.00 96 1019.0
20260902144544 45 0 0.0 0.0 0.00 0.00 0.00 96 1019.0
20260902144026 45 0 0.0 0.0 0.00 0.00 0.00 96 1019.0
20260902143527 45 0 0.0 0.0 0.00 0.00 0.00 96 1019.0
20260902143051 44 0 0.0 0.0 0.00 0.00 0.00 96 1018.9
20260902142526 43 0 0.0 0.0 0.00 0.00 0.00 96 1018.8
20260902142029 43 0 0.0 0.0 0.00 0.00 0.00 95 1018.9
20260902141548 42 0 0.0 0.0 0.00 0.00 0.00 95 1018.7
20260902141028 42 0 0.0 0.0 0.00 0.00 0.00 95 1018.6
20260902140528 42 0 0.0 0.0 0.00 0.00 0.00 95 1018.7
20260902140045 42 0 0.0 0.0 0.00 0.00 0.00 95 1018.7
20260902135528 42 0 0.0 0.0 0.00 0.00 0.00 95 1018.6
20260902135027 42 0 0.0 0.0 0.00 0.00 0.00 95 1018.7
20260902134556 42 0 0.0 0.0 0.00 0.00 0.00 95 1018.6
20260902134029 42 0 0.0 0.0 0.00 0.00 0.00 95 1018.6
20260902133529 42 0 0.0 0.0 0.00 0.00 0.00 95 1018.6
20260902133058 42 0 0.0 0.0 0.00 0.00 0.00 94 1018.8
20260902132527 42 0 0.0 0.0 0.00 0.00 0.00 94 1018.8
20260902132028 43 0 0.0 0.0 0.00 0.00 0.00 95 1018.9
20260902131557 43 0 0.0 0.0 0.00 0.00 0.00 95 1018.8
20260902131029 43 0 0.0 0.0 0.00 0.00 0.00 95 1018.8
20260902130528 43 0 0.0 0.0 0.00 0.00 0.00 95 1018.7
20260902130057 43 0 0.0 0.0 0.00 0.00 0.00 95 1018.8
20260902125526 43 0 0.0 0.0 0.00 0.00 0.00 95 1018.7
20260902125030 43 0 0.0 0.0 0.00 0.00 0.00 94 1018.7
20260902124541 43 0 0.0 0.0 0.00 0.00 0.00 94 1018.7
20260902124030 43 0 0.0 0.0 0.00 0.00 0.00 94 1018.7
20260902123528 43 0 0.0 0.0 0.00 0.00 0.00 94 1018.7
20260902123105 43 0 0.0 0.0 0.00 0.00 0.00 94 1018.7
20260902122531 43 0 0.0 0.0 0.00 0.00 0.00 94 1018.7
20260902122028 44 0 0.0 0.0 0.00 0.00 0.00 94 1018.7
20260902121556 44 0 0.0 0.0 0.00 0.00 0.00 94 1018.7
20260902121028 44 0 0.0 0.0 0.00 0.00 0.00 94 1018.6
20260902120529 44 0 0.0 0.0 0.00 0.00 0.00 94 1018.6
20260902120106 44 0 0.0 0.0 0.00 0.00 0.00 94 1018.6
20260902115528 44 0 0.0 0.0 0.00 0.00 0.00 94 1018.5
20260902115028 44 0 0.0 0.0 0.00 0.00 0.00 94 1018.4
20260902114541 44 0 0.0 0.0 0.00 0.00 0.00 94 1018.5
20260902114028 45 0 0.0 0.0 0.00 0.00 0.00 94 1018.5
20260902113527 45 0 0.0 0.0 0.00 0.00 0.00 94 1018.5
20260902113052 45 0 0.0 0.0 0.00 0.00 0.00 94 1018.4
20260902112527 45 0 0.0 0.0 0.00 0.00 0.00 94 1018.4
20260902112031 45 0 0.0 0.0 0.00 0.00 0.00 94 1018.4
20260902111558 45 0 0.0 0.0 0.00 0.00 0.00 94 1018.4
20260902111026 45 0 0.0 0.0 0.00 0.00 0.00 94 1018.4
20260902110528 45 0 0.0 0.0 0.00 0.00 0.00 94 1018.4
20260902110046 45 0 0.0 0.0 0.00 0.00 0.00 93 1018.3
20260902105525 45 0 0.0 0.0 0.00 0.00 0.00 93 1018.3
20260902105026 45 0 0.0 0.0 0.00 0.00 0.00 93 1018.3
20260902104542 46 0 0.0 0.0 0.00 0.00 0.00 93 1018.2
20260902104027 46 0 0.0 0.0 0.00 0.00 0.00 94 1018.2
20260902103528 46 0 0.0 0.0 0.00 0.00 0.00 94 1018.3
20260902103048 46 0 0.0 0.0 0.00 0.00 0.00 93 1018.1
20260902102529 46 0 0.0 0.0 0.00 0.00 0.00 93 1018.1
20260902102030 46 0 0.0 0.0 0.00 0.00 0.00 93 1018.2
20260902101546 46 0 0.0 0.0 0.00 0.00 0.00 93 1018.1
20260902101030 46 0 0.0 0.0 0.00 0.00 0.00 93 1018.1